FW8930 Weather Reports


Display with metric or nautical units.
time (UTC)temp
F
wind
direction
speed
MPH
gust
MPH
rain 1hr
in
rain 24hr
in
rain mn
in
humidity
%
barometer
mb
20210417062442 36 47 1.0 2.0 0.00 0.00 0.00 59 1032.0
20210417061621 36 47 1.0 2.0 0.00 0.00 0.00 58 1032.1
20210417061113 37 47 1.0 1.0 0.00 0.00 0.00 59 1032.1
20210417060617 38 47 0.0 1.0 0.00 0.00 0.00 56 1032.1
20210417060218 38 47 1.0 1.0 0.00 0.00 0.00 56 1032.0
20210417060057 38 48 0.0 1.0 0.00 0.00 0.00 56 1032.1
20210417055309 39 47 1.0 2.0 0.00 0.00 0.00 58 1031.8
20210417054542 39 48 0.0 1.0 0.00 0.00 0.00 57 1031.9
20210417054043 41 48 0.0 0.0 0.00 0.00 0.00 54 1031.9
20210417053547 41 48 0.0 1.0 0.00 0.00 0.00 54 1031.9
20210417053230 41 48 1.0 1.0 0.00 0.00 0.00 54 1031.9
20210417052944 42 48 0.0 1.0 0.00 0.00 0.00 53 1031.9
20210417052200 43 48 0.0 1.0 0.00 0.00 0.00 48 1031.7
20210417051442 44 48 0.0 0.0 0.00 0.00 0.00 46 1031.9
20210417050935 44 48 0.0 0.0 0.00 0.00 0.00 46 1031.8
20210417050421 45 48 0.0 0.0 0.00 0.00 0.00 48 1031.5
20210417045947 46 48 0.0 0.0 0.00 0.00 0.00 45 1031.3
20210417045808 46 48 0.0 1.0 0.00 0.00 0.00 44 1031.4
20210417044926 48 48 0.0 1.0 0.00 0.00 0.00 43 1031.3
20210417044320 49 48 0.0 1.0 0.00 0.00 0.00 42 1031.2
20210417043814 49 48 0.0 1.0 0.00 0.00 0.00 39 1031.2
20210417043305 50 49 0.0 1.0 0.00 0.00 0.00 39 1030.8
20210417042838 50 48 1.0 1.0 0.00 0.00 0.00 39 1031.0
20210417042532 50 100 1.0 2.0 0.00 0.00 0.00 39 1031.2
20210417041851 51 77 0.0 1.0 0.00 0.00 0.00 37 1031.2
20210417041241 50 59 0.0 0.0 0.00 0.00 0.00 40 1030.9
20210417040734 51 58 0.0 1.0 0.00 0.00 0.00 38 1031.0
20210417040200 51 37 1.0 2.0 0.00 0.00 0.00 38 1030.9
20210417035743 50 146 0.0 1.0 0.00 0.00 0.00 39 1030.8
20210417035301 51 148 0.0 1.0 0.00 0.00 0.00 39 1030.8
20210417034644 51 149 0.0 0.0 0.00 0.00 0.00 38 1030.9
20210417034139 52 148 2.0 2.0 0.00 0.00 0.00 36 1030.8
20210417033636 52 100 1.0 2.0 0.00 0.00 0.00 36 1030.8
20210417033137 52 187 1.0 2.0 0.00 0.00 0.00 37 1030.6
20210417032728 53 104 0.0 2.0 0.00 0.00 0.00 38 1030.7
20210417032234 53 223 0.0 1.0 0.00 0.00 0.00 39 1030.6
20210417031626 53 223 0.0 0.0 0.00 0.00 0.00 36 1030.5
20210417031106 54 188 1.0 1.0 0.00 0.00 0.00 35 1030.3
20210417030616 54 187 0.0 1.0 0.00 0.00 0.00 36 1030.4
20210417030056 53 186 1.0 2.0 0.00 0.00 0.00 37 1030.4
20210417025753 53 187 1.0 2.0 0.00 0.00 0.00 36 1030.2
20210417025254 55 167 1.0 2.0 0.00 0.00 0.00 34 1030.2
20210417024539 54 165 0.0 2.0 0.00 0.00 0.00 36 1030.2
20210417024041 54 197 0.0 1.0 0.00 0.00 0.00 34 1030.4
20210417023532 54 187 2.0 3.0 0.00 0.00 0.00 35 1030.2
20210417023028 54 162 1.0 1.0 0.00 0.00 0.00 33 1030.2
20210417022752 54 227 1.0 2.0 0.00 0.00 0.00 33 1030.4
20210417022158 54 178 2.0 6.0 0.00 0.00 0.00 35 1030.3
20210417021527 53 190 2.0 5.0 0.00 0.00 0.00 35 1030.2
20210417020953 54 225 2.0 5.0 0.00 0.00 0.00 36 1030.2
20210417020450 54 186 3.0 3.0 0.00 0.00 0.00 35 1030.2
20210417015951 54 180 4.0 5.0 0.00 0.00 0.00 35 1030.3
20210417015744 55 258 3.0 3.0 0.00 0.00 0.00 36 1030.4
20210417015047 54 196 3.0 3.0 0.00 0.00 0.00 36 1030.4
20210417014441 54 169 3.0 5.0 0.00 0.00 0.00 36 1030.0
20210417013940 54 159 2.0 6.0 0.00 0.00 0.00 35 1030.2
20210417013438 54 176 2.0 3.0 0.00 0.00 0.00 35 1030.1
20210417013047 54 240 1.0 3.0 0.00 0.00 0.00 37 1030.2
20210417012854 54 185 2.0 3.0 0.00 0.00 0.00 35 1030.0
20210417012026 54 186 0.0 3.0 0.00 0.00 0.00 36 1030.1
20210417011338 54 212 1.0 2.0 0.00 0.00 0.00 35 1030.0
20210417010825 54 214 1.0 5.0 0.00 0.00 0.00 35 1030.1
20210417010319 54 188 2.0 3.0 0.00 0.00 0.00 35 1030.1
20210417010055 54 219 3.0 5.0 0.00 0.00 0.00 37 1030.2
20210417005800 55 212 1.0 2.0 0.00 0.00 0.00 35 1030.1
20210417004924 54 161 1.0 3.0 0.00 0.00 0.00 36 1030.2
20210417004235 54 168 2.0 2.0 0.00 0.00 0.00 36 1030.1
20210417003732 54 236 1.0 1.0 0.00 0.00 0.00 35 1030.1
20210417003250 53 144 0.0 2.0 0.00 0.00 0.00 37 1030.1
20210417002855 54 212 1.0 2.0 0.00 0.00 0.00 35 1029.9
20210417002721 53 226 2.0 2.0 0.00 0.00 0.00 36 1030.0
20210417001712 54 216 1.0 2.0 0.00 0.00 0.00 36 1030.0
20210417001218 53 150 0.0 2.0 0.00 0.00 0.00 38 1030.2
20210417000700 53 170 2.0 2.0 0.00 0.00 0.00 37 1030.1
20210417000301 53 242 2.0 3.0 0.00 0.00 0.00 37 1030.0
20210416235935 53 141 1.0 5.0 0.00 0.00 0.00 37 1030.0
20210416235554 53 98 1.0 2.0 0.00 0.00 0.00 38 1030.0
20210416234624 53 213 1.0 5.0 0.00 0.00 0.00 38 1030.2
20210416234125 52 200 1.0 3.0 0.00 0.00 0.00 40 1029.9
20210416233614 53 241 2.0 3.0 0.00 0.00 0.00 39 1030.2
20210416233107 53 178 2.0 3.0 0.00 0.00 0.00 40 1030.0
20210416232858 52 169 1.0 3.0 0.00 0.00 0.00 40 1030.2
20210416232430 52 180 0.0 1.0 0.00 0.00 0.00 42 1030.2
20210416231554 52 173 5.0 7.0 0.00 0.00 0.00 42 1030.0
20210416231046 53 165 3.0 3.0 0.00 0.00 0.00 37 1030.1
20210416230546 53 103 0.0 1.0 0.00 0.00 0.00 37 1030.2
20210416230228 52 10 4.0 5.0 0.00 0.00 0.00 37 1030.1
20210416225938 53 126 2.0 5.0 0.00 0.00 0.00 37 1030.0
20210416225308 53 356 3.0 5.0 0.00 0.00 0.00 36 1029.8
20210416224523 53 156 1.0 1.0 0.00 0.00 0.00 36 1030.0
20210416223941 53 221 0.0 2.0 0.00 0.00 0.00 37 1030.2
20210416223436 52 152 3.0 3.0 0.00 0.00 0.00 37 1030.2
20210416222958 53 62 0.0 2.0 0.00 0.00 0.00 39 1030.2
20210416222906 53 174 0.0 2.0 0.00 0.00 0.00 40 1029.9
20210416222155 53 208 0.0 2.0 0.00 0.00 0.00 39 1030.2
20210416221423 52 231 3.0 6.0 0.00 0.00 0.00 40 1030.0
20210416220921 51 90 0.0 7.0 0.00 0.00 0.00 38 1029.9
20210416220420 52 165 2.0 3.0 0.00 0.00 0.00 38 1029.8
20210416220034 52 160 1.0 3.0 0.00 0.00 0.00 39 1030.1
20210416215847 51 235 2.0 2.0 0.00 0.00 0.00 39 1030.2
20210416215028 51 263 1.0 3.0 0.00 0.00 0.00 39 1029.9
20210416214349 53 242 3.0 3.0 0.00 0.00 0.00 40 1030.2
20210416213843 52 201 1.0 2.0 0.00 0.00 0.00 40 1030.0
20210416213341 51 246 0.0 2.0 0.00 0.00 0.00 40 1030.1
20210416212850 50 206 2.0 3.0 0.00 0.00 0.00 41 1030.2
20210416212735 51 198 1.0 3.0 0.00 0.00 0.00 41 1030.0
20210416211947 51 181 2.0 3.0 0.00 0.00 0.00 41 1030.2
20210416211323 51 198 1.0 1.0 0.00 0.00 0.00 39 1030.0
20210416210817 51 235 2.0 5.0 0.00 0.00 0.00 40 1030.2
20210416210322 50 170 1.0 3.0 0.00 0.00 0.00 41 1030.3
20210416205818 50 225 1.0 1.0 0.00 0.00 0.00 43 1030.0
20210416205428 50 167 3.0 3.0 0.00 0.00 0.00 43 1030.1
20210416204806 49 190 2.0 3.0 0.00 0.00 0.00 44 1030.1
20210416204247 49 226 2.0 5.0 0.00 0.00 0.00 45 1030.0
20210416203746 49 225 2.0 3.0 0.00 0.00 0.00 44 1030.2
20210416203243 48 153 3.0 5.0 0.00 0.00 0.00 46 1030.0
20210416202851 48 161 5.0 6.0 0.00 0.00 0.00 46 1030.2
20210416202453 48 160 2.0 5.0 0.00 0.00 0.00 46 1030.0
20210416201649 48 144 2.0 6.0 0.00 0.00 0.00 46 1030.0
20210416201130 48 220 3.0 5.0 0.00 0.00 0.00 45 1030.1
20210416200626 48 152 3.0 5.0 0.00 0.00 0.00 42 1030.0
20210416200130 49 183 2.0 5.0 0.00 0.00 0.00 43 1030.1
20210416200012 48 174 3.0 3.0 0.00 0.00 0.00 43 1030.0
20210416195633 47 151 3.0 5.0 0.00 0.00 0.00 45 1030.1
20210416194545 48 156 4.0 5.0 0.00 0.00 0.00 44 1030.0
20210416194103 47 253 1.0 2.0 0.00 0.00 0.00 42 1030.0
20210416193548 48 162 1.0 1.0 0.00 0.00 0.00 40 1030.1
20210416193329 48 205 0.0 3.0 0.00 0.00 0.00 41 1029.9
20210416193144 47 175 2.0 3.0 0.00 0.00 0.00 43 1030.0
20210416192828 46 232 0.0 1.0 0.00 0.00 0.00 42 1030.0
20210416191510 46 231 1.0 1.0 0.00 0.00 0.00 43 1030.0
20210416190906 47 229 1.0 2.0 0.00 0.00 0.00 44 1029.8
20210416190407 45 234 0.0 2.0 0.00 0.00 0.00 45 1029.9
20210416190046 45 246 1.0 1.0 0.00 0.00 0.00 45 1029.9
20210416185426 45 247 2.0 2.0 0.00 0.00 0.00 46 1029.8
20210416184842 45 248 0.0 1.0 0.00 0.00 0.00 46 1029.9
20210416184346 44 248 0.0 1.0 0.00 0.00 0.00 46 1030.1
20210416183839 44 254 3.0 3.0 0.00 0.00 0.00 49 1029.8
20210416183332 44 256 0.0 1.0 0.00 0.00 0.00 47 1030.0
20210416182941 44 254 1.0 2.0 0.00 0.00 0.00 47 1029.7
20210416182758 44 253 0.0 1.0 0.00 0.00 0.00 46 1030.0
20210416181934 42 253 1.0 2.0 0.00 0.00 0.00 49 1030.0
20210416181304 42 260 1.0 2.0 0.00 0.00 0.00 48 1030.0
20210416180757 42 251 0.0 0.0 0.00 0.00 0.00 48 1030.0
20210416180252 41 251 1.0 2.0 0.00 0.00 0.00 52 1029.9
20210416175824 41 251 0.0 1.0 0.00 0.00 0.00 51 1030.0
20210416175436 41 249 2.0 2.0 0.00 0.00 0.00 52 1030.2
20210416174758 41 251 2.0 2.0 0.00 0.00 0.00 51 1030.0
20210416174237 41 263 0.0 0.0 0.00 0.00 0.00 52 1029.9
20210416173731 40 263 1.0 2.0 0.00 0.00 0.00 53 1029.9
20210416173209 39 3 0.0 1.0 0.00 0.00 0.00 58 1030.2
20210416172836 38 3 0.0 0.0 0.00 0.00 0.00 61 1030.1
20210416172625 37 3 0.0 0.0 0.00 0.00 0.00 65 1030.0
20210416171651 35 3 0.0 0.0 0.00 0.00 0.00 74 1030.1
20210416171154 35 3 0.0 0.0 0.00 0.00 0.00 75 1030.0
20210416170642 34 3 0.0 0.0 0.00 0.00 0.00 74 1030.1
20210416170136 33 4 0.0 0.0 0.00 0.00 0.00 78 1030.1
20210416165941 32 3 0.0 0.0 0.00 0.00 0.00 80 1030.0
20210416165534 31 3 0.0 0.0 0.00 0.00 0.00 81 1030.0
20210416164553 30 3 0.0 1.0 0.00 0.00 0.00 77 1030.0
20210416164047 30 3 0.0 1.0 0.00 0.00 0.00 82 1029.9
20210416163541 30 3 0.0 0.0 0.00 0.00 0.00 77 1030.0
20210416163039 31 3 0.0 1.0 0.00 0.00 0.00 78 1030.2
20210416162724 29 3 0.0 1.0 0.00 0.00 0.00 83 1029.9
20210416162200 29 3 2.0 2.0 0.00 0.00 0.00 82 1029.9
20210416161524 28 3 0.0 1.0 0.00 0.00 0.00 84 1029.7
20210416161022 27 3 0.0 0.0 0.00 0.00 0.00 85 1029.7
20210416160532 26 3 0.0 1.0 0.00 0.00 0.00 85 1029.7
20210416160032 27 3 1.0 1.0 0.00 0.00 0.00 85 1029.7
20210416155845 27 3 0.0 0.0 0.00 0.00 0.00 83 1029.5
20210416155118 26 3 0.0 1.0 0.00 0.00 0.00 86 1029.6
20210416154454 26 3 0.0 1.0 0.00 0.00 0.00 88 1029.5
20210416153950 26 3 0.0 1.0 0.00 0.00 0.00 88 1029.6
20210416153439 25 3 0.0 1.0 0.00 0.00 0.00 87 1029.6
20210416152939 25 3 0.0 1.0 0.00 0.00 0.00 88 1029.8
20210416152710 25 3 0.0 1.0 0.00 0.00 0.00 87 1029.8
20210416151949 25 3 0.0 0.0 0.00 0.00 0.00 87 1029.8
20210416151410 25 3 1.0 1.0 0.00 0.00 0.00 88 1029.8
20210416150901 25 3 0.0 0.0 0.00 0.00 0.00 88 1029.9
20210416150427 24 3 1.0 1.0 0.00 0.00 0.00 87 1030.0
20210416150217 25 3 1.0 1.0 0.00 0.00 0.00 87 1029.9
20210416145852 25 3 0.0 1.0 0.00 0.00 0.00 86 1029.8
20210416145033 25 3 1.0 1.0 0.00 0.00 0.00 87 1030.0
20210416144310 25 3 0.0 1.0 0.00 0.00 0.00 87 1029.7
20210416143758 25 3 1.0 2.0 0.00 0.00 0.00 87 1029.8
20210416143257 25 3 0.0 1.0 0.00 0.00 0.00 87 1030.0
20210416142923 25 3 1.0 1.0 0.00 0.00 0.00 87 1029.9
20210416142816 26 3 1.0 1.0 0.00 0.00 0.00 86 1029.9
20210416141814 26 3 1.0 1.0 0.00 0.00 0.00 85 1029.8
20210416141245 26 3 1.0 1.0 0.00 0.00 0.00 85 1029.9
20210416140740 26 3 0.0 1.0 0.00 0.00 0.00 86 1029.9
20210416140307 26 3 1.0 2.0 0.00 0.00 0.00 84 1029.9
20210416140043 26 3 1.0 1.0 0.00 0.00 0.00 82 1029.7
20210416135834 26 3 1.0 1.0 0.00 0.00 0.00 84 1029.5
20210416134732 26 3 1.0 1.0 0.00 0.00 0.00 84 1029.6
20210416134229 26 3 1.0 1.0 0.00 0.00 0.00 83 1029.6
20210416133700 26 3 1.0 1.0 0.00 0.00 0.00 85 1029.6
20210416133157 26 3 1.0 1.0 0.00 0.00 0.00 83 1029.6
20210416132846 26 3 1.0 1.0 0.00 0.00 0.00 85 1029.5
20210416132634 27 3 0.0 1.0 0.00 0.00 0.00 85 1029.6
20210416131650 27 3 0.0 0.0 0.00 0.00 0.00 83 1029.5
20210416131141 27 3 0.0 0.0 0.00 0.00 0.00 84 1029.6
20210416130641 28 3 1.0 1.0 0.00 0.00 0.00 82 1029.4
20210416130139 28 3 0.0 1.0 0.00 0.00 0.00 79 1029.4
20210416125719 29 3 0.0 1.0 0.00 0.00 0.00 79 1029.4
20210416124622 29 3 0.0 1.0 0.00 0.00 0.00 77 1029.5
20210416124120 30 3 1.0 1.0 0.00 0.00 0.00 77 1029.6
20210416123614 29 3 0.0 1.0 0.00 0.00 0.00 79 1029.5
20210416123115 29 3 1.0 2.0 0.00 0.00 0.00 78 1029.5
20210416122450 29 3 1.0 1.0 0.00 0.00 0.00 80 1029.4
20210416121552 31 3 2.0 2.0 0.00 0.00 0.00 72 1029.4
20210416121043 31 4 1.0 1.0 0.00 0.00 0.00 72 1029.4
20210416120538 33 3 1.0 1.0 0.00 0.00 0.00 72 1029.4
20210416120052 33 4 1.0 2.0 0.00 0.00 0.00 65 1029.3
20210416115919 33 5 0.0 1.0 0.00 0.00 0.00 68 1029.1
20210416115546 30 2 0.0 0.0 0.00 0.00 0.00 80 1029.3
20210416114514 30 2 1.0 1.0 0.00 0.00 0.00 75 1029.2
20210416114021 31 2 1.0 2.0 0.00 0.00 0.00 78 1029.5
20210416113510 32 3 1.0 2.0 0.00 0.00 0.00 73 1029.5
20210416113022 31 2 1.0 1.0 0.00 0.00 0.00 73 1029.3
20210416112736 30 6 1.0 1.0 0.00 0.00 0.00 76 1029.3
20210416112049 33 6 1.0 2.0 0.00 0.00 0.00 71 1029.4
20210416111431 33 30 1.0 1.0 0.00 0.00 0.00 68 1029.3
20210416110930 33 33 1.0 3.0 0.00 0.00 0.00 68 1029.3
20210416110430 32 22 1.0 2.0 0.00 0.00 0.00 72 1029.4
20210416110027 32 359 1.0 2.0 0.00 0.00 0.00 73 1029.4
20210416105823 32 358 0.0 2.0 0.00 0.00 0.00 71 1029.5
20210416104943 32 357 1.0 1.0 0.00 0.00 0.00 74 1029.4
20210416104414 31 357 0.0 1.0 0.00 0.00 0.00 76 1029.4
20210416103907 31 0 0.0 1.0 0.00 0.00 0.00 77 1029.4
20210416103412 31 0 1.0 1.0 0.00 0.00 0.00 75 1029.1
20210416103059 31 0 0.0 0.0 0.00 0.00 0.00 78 1029.6
20210416102843 31 0 0.0 1.0 0.00 0.00 0.00 78 1029.3
20210416102035 30 0 0.0 1.0 0.00 0.00 0.00 78 1029.3
20210416101334 29 4 1.0 2.0 0.00 0.00 0.00 83 1029.2
20210416100827 28 348 0.0 2.0 0.00 0.00 0.00 84 1029.0
20210416100324 28 338 1.0 2.0 0.00 0.00 0.00 85 1029.1
20210416095857 28 340 0.0 2.0 0.00 0.00 0.00 86 1029.1
20210416095728 28 352 2.0 5.0 0.00 0.00 0.00 86 1029.2
20210416094857 28 334 0.0 1.0 0.00 0.00 0.00 86 1029.1
20210416094314 28 334 1.0 1.0 0.00 0.00 0.00 86 1028.9
20210416093817 28 334 0.0 0.0 0.00 0.00 0.00 86 1028.9
20210416093313 28 334 0.0 1.0 0.00 0.00 0.00 86 1029.0
20210416092915 28 334 0.0 1.0 0.00 0.00 0.00 85 1028.9
20210416092352 28 334 0.0 1.0 0.00 0.00 0.00 86 1029.0
20210416091755 28 334 0.0 1.0 0.00 0.00 0.00 87 1029.2
20210416091248 28 334 0.0 0.0 0.00 0.00 0.00 85 1029.0
20210416090747 28 335 2.0 2.0 0.00 0.00 0.00 84 1029.0
20210416090243 28 333 0.0 1.0 0.00 0.00 0.00 84 1029.0
20210416085849 28 333 1.0 1.0 0.00 0.00 0.00 83 1029.1
20210416085636 29 333 0.0 1.0 0.00 0.00 0.00 84 1028.8
20210416084801 29 333 1.0 1.0 0.00 0.00 0.00 83 1028.6
20210416084257 29 333 1.0 1.0 0.00 0.00 0.00 84 1028.6
20210416083732 29 333 0.0 0.0 0.00 0.00 0.00 83 1028.8
20210416083225 29 333 1.0 1.0 0.00 0.00 0.00 82 1028.9
20210416082905 29 333 0.0 1.0 0.00 0.00 0.00 82 1028.6
20210416082514 30 333 0.0 0.0 0.00 0.00 0.00 81 1028.7
20210416081707 30 333 0.0 0.0 0.00 0.00 0.00 81 1028.7
20210416081211 30 333 0.0 1.0 0.00 0.00 0.00 80 1028.7
20210416080700 30 333 0.0 1.0 0.00 0.00 0.00 81 1028.4
20210416080217 31 333 0.0 1.0 0.00 0.00 0.00 80 1028.6
20210416075744 31 333 0.0 0.0 0.00 0.00 0.00 79 1028.7
20210416075351 32 333 1.0 1.0 0.00 0.00 0.00 78 1028.6
20210416074636 32 333 0.0 0.0 0.00 0.00 0.00 78 1028.6
20210416074132 32 333 0.0 1.0 0.00 0.00 0.00 77 1028.5
20210416073624 32 334 1.0 1.0 0.00 0.00 0.00 76 1028.6
20210416073114 33 333 0.0 1.0 0.00 0.00 0.00 75 1028.5
20210416072645 35 333 1.0 1.0 0.00 0.00 0.00 73 1028.4
20210416072140 35 334 0.0 1.0 0.00 0.00 0.00 72 1028.5
20210416071557 36 334 1.0 1.0 0.00 0.00 0.00 72 1028.5
20210416071059 35 334 0.0 1.0 0.00 0.00 0.00 72 1028.3
20210416070552 36 334 1.0 2.0 0.00 0.00 0.00 72 1028.5
20210416070049 35 334 1.0 2.0 0.00 0.00 0.00 71 1028.3
20210416065644 34 317 1.0 2.0 0.00 0.00 0.00 74 1028.3
20210416065154 34 315 1.0 2.0 0.00 0.00 0.00 72 1028.4
20210416064534 35 313 1.0 1.0 0.00 0.00 0.00 71 1028.2
20210416064034 35 313 0.0 2.0 0.00 0.00 0.00 72 1028.3
20210416063524 34 272 1.0 1.0 0.00 0.00 0.00 72 1028.2
20210416063041 33 268 1.0 1.0 0.00 0.00 0.00 73 1028.3
20210416062719 34 265 0.0 1.0 0.00 0.00 0.00 72 1028.3